Year,Month,Day,Hour,Minute,Value (Times are PST for temperature in C)
2008,04,26,00,00,-0.70
2008,04,26,00,01,-0.70
2008,04,26,00,02,-0.70
2008,04,26,00,03,-0.70
2008,04,26,00,04,-0.80
2008,04,26,00,05,-0.70
2008,04,26,00,06,-0.80
2008,04,26,00,07,-0.80
2008,04,26,00,08,-0.80
2008,04,26,00,09,-0.80
2008,04,26,00,10,-0.80
2008,04,26,00,11,-0.80
2008,04,26,00,12,-0.80
2008,04,26,00,13,-0.80
2008,04,26,00,14,-0.80
2008,04,26,00,15,-0.80
2008,04,26,00,16,-0.80
2008,04,26,00,17,-0.80
2008,04,26,00,18,-0.80
2008,04,26,00,19,-0.80
2008,04,26,00,20,-0.80
2008,04,26,00,21,-0.80
2008,04,26,00,22,-0.90
2008,04,26,00,23,-0.90
2008,04,26,00,24,-0.90
2008,04,26,00,25,-0.90
2008,04,26,00,26,-0.90
2008,04,26,00,27,-0.90
2008,04,26,00,28,-0.90
2008,04,26,00,29,-0.90
2008,04,26,00,30,-0.90
2008,04,26,00,31,-0.90
2008,04,26,00,32,-0.90
2008,04,26,00,33,-0.90
2008,04,26,00,34,-0.90
2008,04,26,00,35,-0.90
2008,04,26,00,36,-0.90
2008,04,26,00,37,-0.90
2008,04,26,00,38,-0.90
2008,04,26,00,39,-0.90
2008,04,26,00,40,-1.00
2008,04,26,00,41,-1.00
2008,04,26,00,42,-1.00
2008,04,26,00,43,-1.00
2008,04,26,00,44,-1.00
2008,04,26,00,45,-1.00
2008,04,26,00,46,-1.00
2008,04,26,00,47,-1.00
2008,04,26,00,48,-1.10
2008,04,26,00,49,-1.10
2008,04,26,00,50,-1.10
2008,04,26,00,51,-1.10
2008,04,26,00,52,-1.10
2008,04,26,00,53,-1.10
2008,04,26,00,54,-1.10
2008,04,26,00,55,-1.10
2008,04,26,00,56,-1.10
2008,04,26,00,57,-1.20
2008,04,26,00,58,-1.20
2008,04,26,00,59,-1.20
2008,04,26,01,00,-1.20
2008,04,26,01,01,-1.20
2008,04,26,01,02,-1.20
2008,04,26,01,03,-1.20
2008,04,26,01,04,-1.20
2008,04,26,01,05,-1.20
2008,04,26,01,06,-1.20
2008,04,26,01,07,-1.20
2008,04,26,01,08,-1.20
2008,04,26,01,09,-1.20
2008,04,26,01,10,-1.20
2008,04,26,01,11,-1.20
2008,04,26,01,12,-1.20
2008,04,26,01,13,-1.20
2008,04,26,01,14,-1.20
2008,04,26,01,15,-1.20
2008,04,26,01,16,-1.20
2008,04,26,01,17,-1.20
2008,04,26,01,18,-1.20
2008,04,26,01,19,-1.20
2008,04,26,01,20,-1.20
2008,04,26,01,21,-1.20
2008,04,26,01,22,-1.20
2008,04,26,01,23,-1.20
2008,04,26,01,24,-1.20
2008,04,26,01,25,-1.30
2008,04,26,01,26,-1.30
2008,04,26,01,27,-1.30
2008,04,26,01,28,-1.30
2008,04,26,01,29,-1.30
2008,04,26,01,30,-1.30
2008,04,26,01,31,-1.30
2008,04,26,01,32,-1.30
2008,04,26,01,33,-1.30
2008,04,26,01,34,-1.30
2008,04,26,01,35,-1.30
2008,04,26,01,36,-1.30
2008,04,26,01,37,-1.30
2008,04,26,01,38,-1.30
2008,04,26,01,39,-1.30
2008,04,26,01,40,-1.30
2008,04,26,01,41,-1.30
2008,04,26,01,42,-1.30
2008,04,26,01,43,-1.30
2008,04,26,01,44,-1.30
2008,04,26,01,45,-1.30
2008,04,26,01,46,-1.30
2008,04,26,01,47,-1.30
2008,04,26,01,48,-1.30
2008,04,26,01,49,-1.30
2008,04,26,01,50,-1.30
2008,04,26,01,51,-1.30
2008,04,26,01,52,-1.30
2008,04,26,01,53,-1.30
2008,04,26,01,54,-1.30
2008,04,26,01,55,-1.30
2008,04,26,01,56,-1.30
2008,04,26,01,57,-1.30
2008,04,26,01,58,-1.30
2008,04,26,01,59,-1.30
2008,04,26,02,00,-1.30
2008,04,26,02,01,-1.30
2008,04,26,02,02,-1.30
2008,04,26,02,03,-1.30
2008,04,26,02,04,-1.40
2008,04,26,02,05,-1.30
2008,04,26,02,06,-1.30
2008,04,26,02,07,-1.40
2008,04,26,02,08,-1.40
2008,04,26,02,09,-1.40
2008,04,26,02,10,-1.40
2008,04,26,02,11,-1.40
2008,04,26,02,12,-1.40
2008,04,26,02,13,-1.40
2008,04,26,02,14,-1.40
2008,04,26,02,15,-1.40
2008,04,26,02,16,-1.40
2008,04,26,02,17,-1.40
2008,04,26,02,18,-1.40
2008,04,26,02,19,-1.40
2008,04,26,02,20,-1.40
2008,04,26,02,21,-1.40
2008,04,26,02,22,-1.40
2008,04,26,02,23,-1.40
2008,04,26,02,24,-1.50
2008,04,26,02,25,-1.50
2008,04,26,02,26,-1.50
2008,04,26,02,27,-1.50
2008,04,26,02,28,-1.50
2008,04,26,02,29,-1.50
2008,04,26,02,30,-1.50
2008,04,26,02,31,-1.50
2008,04,26,02,32,-1.60
2008,04,26,02,33,-1.60
2008,04,26,02,34,-1.60
2008,04,26,02,35,-1.60
2008,04,26,02,36,-1.60
2008,04,26,02,37,-1.60
2008,04,26,02,38,-1.60
2008,04,26,02,39,-1.60
2008,04,26,02,40,-1.60
2008,04,26,02,41,-1.60
2008,04,26,02,42,-1.60
2008,04,26,02,43,-1.60
2008,04,26,02,44,-1.60
2008,04,26,02,45,-1.60
2008,04,26,02,46,-1.60
2008,04,26,02,47,-1.60
2008,04,26,02,48,-1.60
2008,04,26,02,49,-1.60
2008,04,26,02,50,-1.60
2008,04,26,02,51,-1.60
2008,04,26,02,52,-1.60
2008,04,26,02,53,-1.60
2008,04,26,02,54,-1.70
2008,04,26,02,55,-1.70
2008,04,26,02,56,-1.70
2008,04,26,02,57,-1.70
2008,04,26,02,58,-1.70
2008,04,26,02,59,-1.70
2008,04,26,03,00,-1.70
2008,04,26,03,01,-1.70
2008,04,26,03,02,-1.70
2008,04,26,03,03,-1.70
2008,04,26,03,04,-1.70
2008,04,26,03,05,-1.70
2008,04,26,03,06,-1.70
2008,04,26,03,07,-1.70
2008,04,26,03,08,-1.70
2008,04,26,03,09,-1.70
2008,04,26,03,10,-1.70
2008,04,26,03,11,-1.70
2008,04,26,03,12,-1.70
2008,04,26,03,13,-1.70
2008,04,26,03,14,-1.70
2008,04,26,03,15,-1.70
2008,04,26,03,18,-1.70
2008,04,26,03,21,-1.70
2008,04,26,03,22,-1.70
2008,04,26,03,24,-1.80
2008,04,26,03,25,-1.80
2008,04,26,03,27,-1.80
2008,04,26,03,28,-1.80
2008,04,26,03,30,-1.80
2008,04,26,03,33,-1.70
2008,04,26,03,36,-1.80
2008,04,26,03,39,-1.80
2008,04,26,03,42,-1.80
2008,04,26,03,43,-1.80
2008,04,26,03,45,-1.80
2008,04,26,03,48,-1.80
2008,04,26,03,51,-1.80
2008,04,26,03,54,-1.70
2008,04,26,03,57,-1.70
2008,04,26,04,00,-1.70
2008,04,26,04,03,-1.70
2008,04,26,04,04,-1.70
2008,04,26,04,09,-1.70
2008,04,26,04,12,-1.70
2008,04,26,04,15,-1.70
2008,04,26,04,18,-1.70
2008,04,26,04,21,-1.70
2008,04,26,04,24,-1.70
2008,04,26,04,25,-1.70
2008,04,26,04,27,-1.70
2008,04,26,04,30,-1.70
2008,04,26,04,31,-1.70
2008,04,26,04,32,-1.70
2008,04,26,04,33,-1.70
2008,04,26,04,34,-1.70
2008,04,26,04,35,-1.70
2008,04,26,04,36,-1.70
2008,04,26,04,37,-1.70
2008,04,26,04,38,-1.70
2008,04,26,04,39,-1.70
2008,04,26,04,40,-1.70
2008,04,26,04,41,-1.70
2008,04,26,04,42,-1.70
2008,04,26,04,43,-1.70
2008,04,26,04,44,-1.70
2008,04,26,04,45,-1.70
2008,04,26,04,46,-1.70
2008,04,26,04,47,-1.70
2008,04,26,04,48,-1.70
2008,04,26,04,49,-1.70
2008,04,26,04,50,-1.70
2008,04,26,04,51,-1.70
2008,04,26,04,52,-1.70
2008,04,26,04,53,-1.70
2008,04,26,04,54,-1.70
2008,04,26,04,55,-1.80
2008,04,26,04,56,-1.70
2008,04,26,04,57,-1.70
2008,04,26,04,58,-1.80
2008,04,26,04,59,-1.80
2008,04,26,05,00,-1.80
2008,04,26,05,01,-1.80
2008,04,26,05,02,-1.80
2008,04,26,05,03,-1.80
2008,04,26,05,04,-1.80
2008,04,26,05,05,-1.80
2008,04,26,05,06,-1.80
2008,04,26,05,07,-1.80
2008,04,26,05,08,-1.80
2008,04,26,05,09,-1.80
2008,04,26,05,10,-1.80
2008,04,26,05,11,-1.80
2008,04,26,05,12,-1.80
2008,04,26,05,13,-1.80
2008,04,26,05,14,-1.80
2008,04,26,05,15,-1.80
2008,04,26,05,16,-1.80
2008,04,26,05,17,-1.80
2008,04,26,05,18,-1.80
2008,04,26,05,19,-1.80
2008,04,26,05,20,-1.80
2008,04,26,05,21,-1.80
2008,04,26,05,22,-1.80
2008,04,26,05,23,-1.80
2008,04,26,05,24,-1.80
2008,04,26,05,25,-1.80
2008,04,26,05,26,-1.80
2008,04,26,05,27,-1.80
2008,04,26,05,28,-1.80
2008,04,26,05,29,-1.80
2008,04,26,05,30,-1.80
2008,04,26,05,31,-1.80
2008,04,26,05,32,-1.80
2008,04,26,05,33,-1.80
2008,04,26,05,34,-1.80
2008,04,26,05,35,-1.80
2008,04,26,05,36,-1.80
2008,04,26,05,37,-1.80
2008,04,26,05,38,-1.80
2008,04,26,05,39,-1.80
2008,04,26,05,40,-1.80
2008,04,26,05,41,-1.80
2008,04,26,05,42,-1.80
2008,04,26,05,43,-1.90
2008,04,26,05,44,-1.80
2008,04,26,05,45,-1.90
2008,04,26,05,46,-1.90
2008,04,26,05,47,-1.90
2008,04,26,05,48,-1.90
2008,04,26,05,49,-1.90
2008,04,26,05,50,-1.90
2008,04,26,05,51,-1.90
2008,04,26,05,52,-1.90
2008,04,26,05,53,-1.90
2008,04,26,05,54,-1.90
2008,04,26,05,55,-1.90
2008,04,26,05,56,-1.90
2008,04,26,05,57,-1.90
2008,04,26,05,58,-1.90
2008,04,26,05,59,-1.90
2008,04,26,06,00,-1.90
2008,04,26,06,01,-1.90
2008,04,26,06,02,-1.90
2008,04,26,06,03,-1.90
2008,04,26,06,04,-1.90
2008,04,26,06,05,-1.90
2008,04,26,06,06,-1.90
2008,04,26,06,07,-1.90
2008,04,26,06,08,-1.90
2008,04,26,06,09,-1.90
2008,04,26,06,10,-1.90
2008,04,26,06,11,-1.90
2008,04,26,06,12,-1.90
2008,04,26,06,13,-1.90
2008,04,26,06,14,-1.90
2008,04,26,06,15,-1.90
2008,04,26,06,16,-1.90
2008,04,26,06,17,-1.90
2008,04,26,06,18,-1.90
2008,04,26,06,19,-1.90
2008,04,26,06,20,-1.90
2008,04,26,06,21,-1.90
2008,04,26,06,22,-1.90
2008,04,26,06,23,-1.90
2008,04,26,06,24,-1.90
2008,04,26,06,25,-1.90
2008,04,26,06,26,-1.90
2008,04,26,06,27,-1.90
2008,04,26,06,28,-1.90
2008,04,26,06,29,-1.80
2008,04,26,06,30,-1.80
2008,04,26,06,31,-1.80
2008,04,26,06,32,-1.80
2008,04,26,06,33,-1.80
2008,04,26,06,34,-1.80
2008,04,26,06,35,-1.80
2008,04,26,06,36,-1.80
2008,04,26,06,37,-1.80
2008,04,26,06,38,-1.80
2008,04,26,06,39,-1.80
2008,04,26,06,40,-1.80
2008,04,26,06,41,-1.80
2008,04,26,06,42,-1.80
2008,04,26,06,43,-1.80
2008,04,26,06,44,-1.80
2008,04,26,06,45,-1.80
2008,04,26,06,46,-1.80
2008,04,26,06,47,-1.80
2008,04,26,06,48,-1.80
2008,04,26,06,49,-1.80
2008,04,26,06,50,-1.70
2008,04,26,06,51,-1.70
2008,04,26,06,52,-1.70
2008,04,26,06,53,-1.70
2008,04,26,06,54,-1.70
2008,04,26,06,55,-1.70
2008,04,26,06,56,-1.70
2008,04,26,06,57,-1.70
2008,04,26,06,58,-1.60
2008,04,26,06,59,-1.60
2008,04,26,07,00,-1.60
2008,04,26,07,01,-1.60
2008,04,26,07,02,-1.60
2008,04,26,07,03,-1.60
2008,04,26,07,04,-1.50
2008,04,26,07,05,-1.50
2008,04,26,07,06,-1.50
2008,04,26,07,07,-1.40
2008,04,26,07,08,-1.40
2008,04,26,07,09,-1.40
2008,04,26,07,10,-1.40
2008,04,26,07,11,-1.40
2008,04,26,07,12,-1.40
2008,04,26,07,13,-1.30
2008,04,26,07,14,-1.30
2008,04,26,07,15,-1.30
2008,04,26,07,16,-1.30
2008,04,26,07,17,-1.30
2008,04,26,07,18,-1.30
2008,04,26,07,19,-1.20
2008,04,26,07,20,-1.20
2008,04,26,07,21,-1.20
2008,04,26,07,22,-1.20
2008,04,26,07,23,-1.20
2008,04,26,07,24,-1.20
2008,04,26,07,25,-1.10
2008,04,26,07,26,-1.10
2008,04,26,07,27,-1.10
2008,04,26,07,28,-1.00
2008,04,26,07,29,-1.00
2008,04,26,07,30,-1.00
2008,04,26,07,31,-0.90
2008,04,26,07,32,-0.90
2008,04,26,07,33,-0.90
2008,04,26,07,34,-0.80
2008,04,26,07,35,-0.80
2008,04,26,07,36,-0.80
2008,04,26,07,37,-0.70
2008,04,26,07,38,-0.70
2008,04,26,07,39,-0.70
2008,04,26,07,40,-0.60
2008,04,26,07,41,-0.60
2008,04,26,07,42,-0.60
2008,04,26,07,43,-0.50
2008,04,26,07,44,-0.40
2008,04,26,07,45,-0.30
2008,04,26,07,46,-0.30
2008,04,26,07,47,-0.20
2008,04,26,07,48,-0.20
2008,04,26,07,49,-0.10
2008,04,26,07,50,0.00
2008,04,26,07,51,0.10
2008,04,26,07,52,0.20
2008,04,26,07,53,0.30
2008,04,26,07,54,0.40
2008,04,26,07,55,0.50
2008,04,26,07,56,0.60
2008,04,26,07,57,0.70
2008,04,26,07,58,0.80
2008,04,26,07,59,0.90
2008,04,26,08,00,1.10
2008,04,26,08,01,1.30
2008,04,26,08,02,1.30
2008,04,26,08,03,1.50
2008,04,26,08,04,1.60
2008,04,26,08,05,1.80
2008,04,26,08,06,1.90
2008,04,26,08,07,2.00
2008,04,26,08,08,2.20
2008,04,26,08,09,2.30
2008,04,26,08,10,2.40
2008,04,26,08,11,2.60
2008,04,26,08,12,2.80
2008,04,26,08,13,2.90
2008,04,26,08,14,3.00
2008,04,26,08,15,3.20
2008,04,26,08,16,3.30
2008,04,26,08,17,3.50
2008,04,26,08,18,3.70
2008,04,26,08,19,3.80
2008,04,26,08,20,3.90
2008,04,26,08,21,4.10
2008,04,26,08,22,4.20
2008,04,26,08,23,4.30
2008,04,26,08,24,4.50
2008,04,26,08,25,4.70
2008,04,26,08,26,4.80
2008,04,26,08,27,4.90
2008,04,26,08,28,5.00
2008,04,26,08,29,5.10
2008,04,26,08,30,5.20
2008,04,26,08,31,5.40
2008,04,26,08,32,5.50
2008,04,26,08,33,5.60
2008,04,26,08,34,5.70
2008,04,26,08,35,5.70
2008,04,26,08,36,5.80
2008,04,26,08,37,5.90
2008,04,26,08,38,6.00
2008,04,26,08,39,6.10
2008,04,26,08,40,6.30
2008,04,26,08,41,6.30
2008,04,26,08,42,6.40
2008,04,26,08,43,6.40
2008,04,26,08,44,6.40
2008,04,26,08,45,6.50
2008,04,26,08,46,6.50
2008,04,26,08,47,6.60
2008,04,26,08,48,6.60
2008,04,26,08,49,6.70
2008,04,26,08,50,6.70
2008,04,26,08,51,6.80
2008,04,26,08,52,6.80
2008,04,26,08,53,6.90
2008,04,26,08,54,6.90
2008,04,26,08,55,6.90
2008,04,26,08,56,6.90
2008,04,26,08,57,6.90
2008,04,26,08,58,6.90
2008,04,26,08,59,6.90
2008,04,26,09,00,7.00
2008,04,26,09,01,7.00
2008,04,26,09,02,7.10
2008,04,26,09,03,7.20
2008,04,26,09,04,7.20
2008,04,26,09,05,7.20
2008,04,26,09,06,7.30
2008,04,26,09,07,7.40
2008,04,26,09,08,7.40
2008,04,26,09,09,7.50
2008,04,26,09,10,7.60
2008,04,26,09,11,7.70
2008,04,26,09,12,7.70
2008,04,26,09,13,7.60
2008,04,26,09,14,7.60
2008,04,26,09,15,7.50
2008,04,26,09,16,7.40
2008,04,26,09,17,7.40
2008,04,26,09,18,7.50
2008,04,26,09,19,7.50
2008,04,26,09,20,7.60
2008,04,26,09,21,7.70
2008,04,26,09,22,7.70
2008,04,26,09,23,7.80
2008,04,26,09,24,7.80
2008,04,26,09,25,7.80
2008,04,26,09,26,7.80
2008,04,26,09,27,7.90
2008,04,26,09,28,7.90
2008,04,26,09,29,7.90
2008,04,26,09,30,7.90
2008,04,26,09,31,8.00
2008,04,26,09,32,8.00
2008,04,26,09,33,8.00
2008,04,26,09,34,8.10
2008,04,26,09,35,8.10
2008,04,26,09,36,8.20
2008,04,26,09,37,8.20
2008,04,26,09,38,8.20
2008,04,26,09,39,8.20
2008,04,26,09,40,8.30
2008,04,26,09,41,8.30
2008,04,26,09,42,8.30
2008,04,26,09,43,8.40
2008,04,26,09,44,8.40
2008,04,26,09,45,8.40
2008,04,26,09,46,8.40
2008,04,26,09,47,8.50
2008,04,26,09,48,8.50
2008,04,26,09,49,8.60
2008,04,26,09,50,8.60
2008,04,26,09,51,8.60
2008,04,26,09,52,8.70
2008,04,26,09,53,8.70
2008,04,26,09,54,8.80
2008,04,26,09,55,8.80
2008,04,26,09,56,8.80
2008,04,26,09,57,8.80
2008,04,26,09,58,8.90
2008,04,26,09,59,8.90
2008,04,26,10,00,8.90
2008,04,26,10,01,9.00
2008,04,26,10,02,9.00
2008,04,26,10,03,9.10
2008,04,26,10,04,9.10
2008,04,26,10,05,9.00
2008,04,26,10,06,9.00
2008,04,26,10,07,8.90
2008,04,26,10,08,9.00
2008,04,26,10,09,9.00
2008,04,26,10,10,9.00
2008,04,26,10,11,9.00
2008,04,26,10,12,9.00
2008,04,26,10,13,9.00
2008,04,26,10,14,9.10
2008,04,26,10,15,9.10
2008,04,26,10,16,9.10
2008,04,26,10,17,9.10
2008,04,26,10,18,9.10
2008,04,26,10,19,9.10
2008,04,26,10,20,9.10
2008,04,26,10,21,9.10
2008,04,26,10,22,9.10
2008,04,26,10,23,9.10
2008,04,26,10,24,9.20
2008,04,26,10,25,9.20
2008,04,26,10,26,9.30
2008,04,26,10,27,9.40
2008,04,26,10,28,9.40
2008,04,26,10,29,9.40
2008,04,26,10,30,9.30
2008,04,26,10,31,9.40
2008,04,26,10,32,9.40
2008,04,26,10,33,9.30
2008,04,26,10,34,9.30
2008,04,26,10,35,9.30
2008,04,26,10,36,9.20
2008,04,26,10,37,9.20
2008,04,26,10,38,9.20
2008,04,26,10,39,9.20
2008,04,26,10,40,9.10
2008,04,26,10,41,9.10
2008,04,26,10,42,9.10
2008,04,26,10,43,9.00
2008,04,26,10,44,9.00
2008,04,26,10,45,9.00
2008,04,26,10,46,8.90
2008,04,26,10,47,8.90
2008,04,26,10,48,8.90
2008,04,26,10,49,8.90
2008,04,26,10,50,9.00
2008,04,26,10,51,9.00
2008,04,26,10,52,9.10
2008,04,26,10,53,9.10
2008,04,26,10,54,9.10
2008,04,26,10,55,9.10
2008,04,26,10,56,9.10
2008,04,26,10,57,9.20
2008,04,26,10,58,9.30
2008,04,26,10,59,9.30
2008,04,26,11,00,9.30
2008,04,26,11,01,9.40
2008,04,26,11,02,9.30
2008,04,26,11,03,9.30
2008,04,26,11,04,9.30
2008,04,26,11,05,9.20
2008,04,26,11,06,9.20
2008,04,26,11,07,9.20
2008,04,26,11,08,9.30
2008,04,26,11,09,9.40
2008,04,26,11,10,9.40
2008,04,26,11,11,9.30
2008,04,26,11,12,9.40
2008,04,26,11,13,9.40
2008,04,26,11,14,9.50
2008,04,26,11,15,9.60
2008,04,26,11,16,9.70
2008,04,26,11,17,9.80
2008,04,26,11,18,9.90
2008,04,26,11,19,10.00
2008,04,26,11,20,10.10
2008,04,26,11,21,10.10
2008,04,26,11,22,10.20
2008,04,26,11,23,10.20
2008,04,26,11,24,10.30
2008,04,26,11,25,10.40
2008,04,26,11,26,10.50
2008,04,26,11,27,10.60
2008,04,26,11,28,10.50
2008,04,26,11,29,10.40
2008,04,26,11,30,10.40
2008,04,26,11,31,10.50
2008,04,26,11,32,10.50
2008,04,26,11,33,10.40
2008,04,26,11,34,10.40
2008,04,26,11,35,10.40
2008,04,26,11,36,10.40
2008,04,26,11,37,10.30
2008,04,26,11,38,10.30
2008,04,26,11,39,10.30
2008,04,26,11,40,10.20
2008,04,26,11,41,10.30
2008,04,26,11,42,10.30
2008,04,26,11,43,10.20
2008,04,26,11,44,10.20
2008,04,26,11,45,10.20
2008,04,26,11,46,10.30
2008,04,26,11,47,10.30
2008,04,26,11,48,10.30
2008,04,26,11,49,10.40
2008,04,26,11,50,10.40
2008,04,26,11,51,10.40
2008,04,26,11,52,10.50
2008,04,26,11,53,10.50
2008,04,26,11,54,10.50
2008,04,26,11,55,10.60
2008,04,26,11,56,10.70
2008,04,26,11,57,10.80
2008,04,26,11,58,10.80
2008,04,26,11,59,10.80
2008,04,26,12,00,10.70
2008,04,26,12,01,10.70
2008,04,26,12,02,10.70
2008,04,26,12,03,10.70
2008,04,26,12,04,10.80
2008,04,26,12,05,10.80
2008,04,26,12,06,10.80
2008,04,26,12,07,10.90
2008,04,26,12,08,10.90
2008,04,26,12,09,10.80
2008,04,26,12,10,10.60
2008,04,26,12,11,10.60
2008,04,26,12,12,10.60
2008,04,26,12,13,10.70
2008,04,26,12,14,10.80
2008,04,26,12,15,10.80
2008,04,26,12,16,10.80
2008,04,26,12,17,10.80
2008,04,26,12,18,10.90
2008,04,26,12,19,10.90
2008,04,26,12,20,10.90
2008,04,26,12,21,11.00
2008,04,26,12,22,11.00
2008,04,26,12,23,11.20
2008,04,26,12,24,11.30
2008,04,26,12,25,11.30
2008,04,26,12,26,11.40
2008,04,26,12,27,11.40
2008,04,26,12,28,11.40
2008,04,26,12,29,11.40
2008,04,26,12,30,11.40
2008,04,26,12,31,11.30
2008,04,26,12,32,11.30
2008,04,26,12,33,11.20
2008,04,26,12,34,11.20
2008,04,26,12,35,11.10
2008,04,26,12,36,11.10
2008,04,26,12,37,11.00
2008,04,26,12,38,11.00
2008,04,26,12,39,11.10
2008,04,26,12,40,11.10
2008,04,26,12,41,11.10
2008,04,26,12,42,11.10
2008,04,26,12,43,11.00
2008,04,26,12,44,11.00
2008,04,26,12,45,11.00
2008,04,26,12,46,11.00
2008,04,26,12,47,11.10
2008,04,26,12,48,11.10
2008,04,26,12,49,11.20
2008,04,26,12,50,11.30
2008,04,26,12,51,11.40
2008,04,26,12,52,11.50
2008,04,26,12,53,11.60
2008,04,26,12,54,11.70
2008,04,26,12,55,11.80
2008,04,26,12,56,11.90
2008,04,26,12,57,12.00
2008,04,26,12,58,12.00
2008,04,26,12,59,12.00
2008,04,26,13,00,11.90
2008,04,26,13,01,11.70
2008,04,26,13,02,11.50
2008,04,26,13,03,11.30
2008,04,26,13,04,11.20
2008,04,26,13,05,11.00
2008,04,26,13,06,10.90
2008,04,26,13,07,10.80
2008,04,26,13,08,10.60
2008,04,26,13,09,10.50
2008,04,26,13,10,10.50
2008,04,26,13,11,10.50
2008,04,26,13,12,10.70
2008,04,26,13,13,10.80
2008,04,26,13,14,11.00
2008,04,26,13,15,11.20
2008,04,26,13,16,11.30
2008,04,26,13,17,11.40
2008,04,26,13,18,11.40
2008,04,26,13,19,11.50
2008,04,26,13,20,11.60
2008,04,26,13,21,11.70
2008,04,26,13,22,11.70
2008,04,26,13,23,11.70
2008,04,26,13,24,11.70
2008,04,26,13,25,11.70
2008,04,26,13,26,11.70
2008,04,26,13,27,11.70
2008,04,26,13,28,11.70
2008,04,26,13,29,11.70
2008,04,26,13,30,11.60
2008,04,26,13,31,11.30
2008,04,26,13,32,11.20
2008,04,26,13,33,11.00
2008,04,26,13,34,10.90
2008,04,26,13,35,10.80
2008,04,26,13,36,10.70
2008,04,26,13,37,10.70
2008,04,26,13,38,10.70
2008,04,26,13,39,10.70
2008,04,26,13,40,10.80
2008,04,26,13,41,10.90
2008,04,26,13,42,10.90
2008,04,26,13,43,11.00
2008,04,26,13,44,11.10
2008,04,26,13,45,11.20
2008,04,26,13,46,11.30
2008,04,26,13,47,11.40
2008,04,26,13,48,11.60
2008,04,26,13,49,11.70
2008,04,26,13,50,11.70
2008,04,26,13,51,11.70
2008,04,26,13,52,11.90
2008,04,26,13,53,12.00
2008,04,26,13,54,12.20
2008,04,26,13,55,12.20
2008,04,26,13,56,12.30
2008,04,26,13,57,12.30
2008,04,26,13,58,12.40
2008,04,26,13,59,12.40
2008,04,26,14,00,12.40
2008,04,26,14,01,12.30
2008,04,26,14,02,12.20
2008,04,26,14,03,12.10
2008,04,26,14,04,12.10
2008,04,26,14,05,12.10
2008,04,26,14,06,12.20
2008,04,26,14,07,12.40
2008,04,26,14,08,12.40
2008,04,26,14,09,12.50
2008,04,26,14,10,12.50
2008,04,26,14,11,12.60
2008,04,26,14,12,12.60
2008,04,26,14,13,12.50
2008,04,26,14,14,12.30
2008,04,26,14,15,12.10
2008,04,26,14,16,12.10
2008,04,26,14,17,12.10
2008,04,26,14,18,12.10
2008,04,26,14,19,12.10
2008,04,26,14,20,12.20
2008,04,26,14,21,12.30
2008,04,26,14,22,12.40
2008,04,26,14,23,12.50
2008,04,26,14,24,12.50
2008,04,26,14,25,12.40
2008,04,26,14,26,12.40
2008,04,26,14,27,12.50
2008,04,26,14,28,12.60
2008,04,26,14,29,12.60
2008,04,26,14,30,12.70
2008,04,26,14,31,12.80
2008,04,26,14,32,12.90
2008,04,26,14,33,12.90
2008,04,26,14,34,13.10
2008,04,26,14,35,13.30
2008,04,26,14,36,13.50
2008,04,26,14,37,13.50
2008,04,26,14,38,13.60
2008,04,26,14,39,13.60
2008,04,26,14,40,13.60
2008,04,26,14,41,13.50
2008,04,26,14,42,13.30
2008,04,26,14,43,13.20
2008,04,26,14,44,13.00
2008,04,26,14,45,13.00
2008,04,26,14,46,12.90
2008,04,26,14,47,12.80
2008,04,26,14,48,12.80
2008,04,26,14,49,12.80
2008,04,26,14,50,12.80
2008,04,26,14,51,12.60
2008,04,26,14,52,12.50
2008,04,26,14,53,12.40
2008,04,26,14,54,12.30
2008,04,26,14,55,12.30
2008,04,26,14,56,12.30
2008,04,26,14,57,12.30
2008,04,26,14,58,12.20
2008,04,26,14,59,12.10
2008,04,26,15,00,11.90
2008,04,26,15,01,11.60
2008,04,26,15,02,11.50
2008,04,26,15,03,11.30
2008,04,26,15,04,11.20
2008,04,26,15,05,11.00
2008,04,26,15,06,11.00
2008,04,26,15,07,10.90
2008,04,26,15,08,10.90
2008,04,26,15,09,10.90
2008,04,26,15,10,10.90
2008,04,26,15,11,10.90
2008,04,26,15,12,10.90
2008,04,26,15,13,11.00
2008,04,26,15,14,11.00
2008,04,26,15,15,11.10
2008,04,26,15,16,11.20
2008,04,26,15,17,11.30
2008,04,26,15,18,11.30
2008,04,26,15,19,11.40
2008,04,26,15,20,11.50
2008,04,26,15,21,11.50
2008,04,26,15,22,11.60
2008,04,26,15,23,11.60
2008,04,26,15,24,11.70
2008,04,26,15,25,11.70
2008,04,26,15,26,11.70
2008,04,26,15,27,11.70
2008,04,26,15,28,11.80
2008,04,26,15,29,11.80
2008,04,26,15,30,11.70
2008,04,26,15,31,11.70
2008,04,26,15,32,11.80
2008,04,26,15,33,11.80
2008,04,26,15,34,11.80
2008,04,26,15,35,11.80
2008,04,26,15,36,11.90
2008,04,26,15,37,11.90
2008,04,26,15,38,11.90
2008,04,26,15,39,11.90
2008,04,26,15,40,11.80
2008,04,26,15,41,11.80
2008,04,26,15,42,11.80
2008,04,26,15,43,11.80
2008,04,26,15,44,11.80
2008,04,26,15,45,11.80
2008,04,26,15,46,11.80
2008,04,26,15,47,11.80
2008,04,26,15,48,11.80
2008,04,26,15,49,11.80
2008,04,26,15,50,11.70
2008,04,26,15,51,11.80
2008,04,26,15,52,11.80
2008,04,26,15,53,11.80
2008,04,26,15,54,11.90
2008,04,26,15,55,12.00
2008,04,26,15,56,12.00
2008,04,26,15,57,12.00
2008,04,26,15,58,12.00
2008,04,26,15,59,11.90
2008,04,26,16,00,11.90
2008,04,26,16,01,11.90
2008,04,26,16,02,11.90
2008,04,26,16,03,11.90
2008,04,26,16,04,11.90
2008,04,26,16,05,11.90
2008,04,26,16,06,12.00
2008,04,26,16,07,12.00
2008,04,26,16,08,12.10
2008,04,26,16,09,12.10
2008,04,26,16,10,12.10
2008,04,26,16,11,12.20
2008,04,26,16,12,12.20
2008,04,26,16,13,12.20
2008,04,26,16,14,12.20
2008,04,26,16,15,12.30
2008,04,26,16,16,12.40
2008,04,26,16,17,12.40
2008,04,26,16,18,12.40
2008,04,26,16,19,12.50
2008,04,26,16,20,12.50
2008,04,26,16,21,12.50
2008,04,26,16,22,12.50
2008,04,26,16,23,12.50
2008,04,26,16,24,12.50
2008,04,26,16,25,12.50
2008,04,26,16,26,12.50
2008,04,26,16,27,12.50
2008,04,26,16,28,12.50
2008,04,26,16,29,12.50
2008,04,26,16,30,12.50
2008,04,26,16,31,12.40
2008,04,26,16,32,12.40
2008,04,26,16,33,12.40
2008,04,26,16,34,12.40
2008,04,26,16,35,12.50
2008,04,26,16,36,12.40
2008,04,26,16,37,12.40
2008,04,26,16,38,12.30
2008,04,26,16,39,12.20
2008,04,26,16,40,12.20
2008,04,26,16,41,12.10
2008,04,26,16,42,12.00
2008,04,26,16,43,11.90
2008,04,26,16,44,11.80
2008,04,26,16,45,11.70
2008,04,26,16,46,11.70
2008,04,26,16,47,11.70
2008,04,26,16,48,11.70
2008,04,26,16,49,11.70
2008,04,26,16,50,11.70
2008,04,26,16,51,11.70
2008,04,26,16,52,11.70
2008,04,26,16,53,11.80
2008,04,26,16,54,11.80
2008,04,26,16,55,11.90
2008,04,26,16,56,11.90
2008,04,26,16,57,12.00
2008,04,26,16,58,12.00
2008,04,26,16,59,12.10
2008,04,26,17,00,12.10
2008,04,26,17,01,12.10
2008,04,26,17,02,12.20
2008,04,26,17,03,12.20
2008,04,26,17,04,12.20
2008,04,26,17,05,12.20
2008,04,26,17,06,12.20
2008,04,26,17,07,12.20
2008,04,26,17,08,12.20
2008,04,26,17,09,12.20
2008,04,26,17,10,12.20
2008,04,26,17,11,12.20
2008,04,26,17,12,12.20
2008,04,26,17,13,12.20
2008,04,26,17,14,12.20
2008,04,26,17,15,12.20
2008,04,26,17,16,12.20
2008,04,26,17,17,12.20
2008,04,26,17,18,12.30
2008,04,26,17,19,12.30
2008,04,26,17,20,12.30
2008,04,26,17,21,12.30
2008,04,26,17,22,12.30
2008,04,26,17,23,12.30
2008,04,26,17,24,12.40
2008,04,26,17,25,12.40
2008,04,26,17,26,12.40
2008,04,26,17,27,12.40
2008,04,26,17,28,12.40
2008,04,26,17,29,12.40
2008,04,26,17,30,12.50
2008,04,26,17,31,12.60
2008,04,26,17,32,12.60
2008,04,26,17,33,12.60
2008,04,26,17,34,12.60
2008,04,26,17,35,12.60
2008,04,26,17,36,12.60
2008,04,26,17,37,12.60
2008,04,26,17,38,12.60
2008,04,26,17,39,12.60
2008,04,26,17,40,12.60
2008,04,26,17,41,12.60
2008,04,26,17,42,12.60
2008,04,26,17,43,12.60
2008,04,26,17,44,12.60
2008,04,26,17,45,12.60
2008,04,26,17,46,12.60
2008,04,26,17,47,12.60
2008,04,26,17,48,12.60
2008,04,26,17,49,12.60
2008,04,26,17,50,12.60
2008,04,26,17,51,12.60
2008,04,26,17,52,12.50
2008,04,26,17,53,12.50
2008,04,26,17,54,12.40
2008,04,26,17,55,12.30
2008,04,26,17,56,12.30
2008,04,26,17,57,12.20
2008,04,26,17,58,12.20
2008,04,26,17,59,12.20
2008,04,26,18,00,12.10
2008,04,26,18,01,12.10
2008,04,26,18,02,12.10
2008,04,26,18,03,12.00
2008,04,26,18,04,12.00
2008,04,26,18,05,12.00
2008,04,26,18,06,11.90
2008,04,26,18,07,11.90
2008,04,26,18,08,11.90
2008,04,26,18,09,11.90
2008,04,26,18,10,11.90
2008,04,26,18,11,11.80
2008,04,26,18,12,11.80
2008,04,26,18,13,11.80